Hilo, HI

1:36 PM HST on March 27, 2017 (GMT -1000)
Hilo International

Weather History for PHTO - June, 2013

Change the Weather History Date:

Monday, June 24, 2013

  Actual Average Record
Temperature  
Mean Temperature 76 °F 75 °F  
Max Temperature 84 °F 82 °F 90 °F (1969)
Min Temperature 68 °F 69 °F 62 °F (1965)
Degree Days  
Heating Degree Days 0 0  
Month to date heating degree days 0 0  
Since 1 June heating degree days 0 0  
Since 1 July heating degree days 0 0  
Cooling Degree Days 11 10  
Month to date cooling degree days 256 240  
Year to date cooling degree days 1409 1308  
Since 1 June cooling degree days 256 240  
Growing Degree Days 26 (Base 50)    
Moisture  
Dew Point 65 °F    
Average Humidity 72    
Maximum Humidity 90    
Minimum Humidity 54    
Precipitation  
Precipitation 0.01 in 0.27 in 1.62 in (1990)
Month to date precipitation 3.81 5.67  
Year to date precipitation 50.85 57.58  
Snow  
Snow 0.00 in - - ()
Month to date snowfall 0.0  
Since 1 June snowfall 0.0  
Since 1 July snowfall 0.0  
Snow Depth 0.00 in    
Sea Level Pressure  
Sea Level Pressure 30.09 in    
Wind  
Wind Speed 6 mph (West)    
Max Wind Speed 13 mph    
Max Gust Speed 20 mph    
Visibility 10 miles    
Events Rain    
T = Trace of Precipitation, MM = Missing Value Source: NWS Daily Summary

Daily Weather History Graph

Daily Weather History Graph

Search for Another Location

Airport or City:

Trip Planner

Search our weather history database for the weather conditions in past years. The results will help you decide how hot, cold, wet, or windy it might be!

Date:

Astronomy

Jun. 24, 2013 Rise Set
Actual Time 5:43 AM HST 7:02 PM HST
Civil Twilight 5:18 AM HST 7:26 PM HST
Nautical Twilight 4:49 AM HST 7:56 PM HST
Astronomical Twilight 4:19 AM HST 8:26 PM HST
Moon 8:31 PM HST (6/24) 7:09 AM HST (6/24)
Length of Visible Light 14h 08m
Length of Day
13h 19m
Full, 97% of the Moon is Illuminated
Jun 24
Full
Jun 29
Last Quarter
Jul 7
New
Jul 15
First Quarter
Jul 22
Full

Hourly Weather History & Observations

Time (HST) Temp. Heat Index Dew Point Humidity Pressure Visibility Wind Dir Wind Speed Gust Speed Precip Events Conditions
12:40 AM 71.1 °F - 66.9 °F 87% 30.12 in 10.0 mi SSE 4.6 mph - 0.00 in   Mostly Cloudy
12:53 AM 70.0 °F - 66.0 °F 87% 30.11 in 10.0 mi SW 5.8 mph - 0.00 in   Mostly Cloudy
1:45 AM 70.0 °F - 64.9 °F 84% 30.10 in 9.0 mi South 4.6 mph - 0.01 in Rain Light Rain
1:53 AM 71.1 °F - 64.9 °F 81% 30.10 in 10.0 mi SSW 3.5 mph - 0.01 in Rain Light Rain
2:53 AM 70.0 °F - 64.9 °F 84% 30.08 in 10.0 mi WSW 5.8 mph - 0.00 in   Overcast
3:28 AM 70.0 °F - 66.0 °F 87% 30.08 in 10.0 mi West 4.6 mph - 0.00 in Rain Light Rain
3:36 AM 70.0 °F - 66.0 °F 87% 30.08 in 10.0 mi West 5.8 mph - 0.00 in Rain Light Rain
3:53 AM 70.0 °F - 64.9 °F 84% 30.08 in 10.0 mi West 3.5 mph - 0.00 in   Overcast
4:24 AM 69.1 °F - 64.9 °F 87% 30.09 in 10.0 mi SW 4.6 mph - 0.00 in   Overcast
4:37 AM 69.1 °F - 64.9 °F 87% 30.08 in 10.0 mi WSW 6.9 mph - 0.00 in   Mostly Cloudy
4:53 AM 70.0 °F - 64.9 °F 84% 30.08 in 10.0 mi WSW 5.8 mph - 0.00 in   Mostly Cloudy
5:53 AM 68.0 °F - 64.0 °F 87% 30.09 in 10.0 mi WSW 5.8 mph - N/A   Mostly Cloudy
6:53 AM 71.1 °F - 64.0 °F 78% 30.10 in 10.0 mi WSW 4.6 mph - N/A   Scattered Clouds
7:53 AM 75.0 °F - 64.9 °F 71% 30.11 in 10.0 mi NNW 4.6 mph - N/A   Mostly Cloudy
8:53 AM 75.0 °F - 64.0 °F 69% 30.12 in 10.0 mi NW 8.1 mph - 0.00 in   Mostly Cloudy
9:53 AM 75.9 °F - 66.9 °F 74% 30.12 in 10.0 mi Variable 3.5 mph - 0.00 in   Mostly Cloudy
10:53 AM 80.1 °F 81.5 °F 63.0 °F 56% 30.11 in 10.0 mi Variable 3.5 mph - N/A   Mostly Cloudy
11:53 AM 82.0 °F 83.4 °F 64.0 °F 54% 30.11 in 10.0 mi NNE 6.9 mph - N/A   Mostly Cloudy
12:53 PM 81.0 °F 82.7 °F 64.9 °F 58% 30.09 in 10.0 mi NNE 6.9 mph - N/A   Scattered Clouds
1:53 PM 82.0 °F 83.4 °F 64.0 °F 54% 30.08 in 10.0 mi NE 10.4 mph - N/A   Scattered Clouds
2:53 PM 82.9 °F 84.4 °F 64.0 °F 53% 30.07 in 10.0 mi ENE 10.4 mph - N/A   Scattered Clouds
3:53 PM 82.0 °F 83.4 °F 64.0 °F 54% 30.06 in 10.0 mi NNE 6.9 mph - N/A   Clear
4:53 PM 80.1 °F 81.5 °F 63.0 °F 56% 30.06 in 10.0 mi NE 8.1 mph - N/A   Clear
5:53 PM 79.0 °F - 63.0 °F 58% 30.06 in 10.0 mi North 6.9 mph - N/A   Clear
6:53 PM 75.9 °F - 64.0 °F 67% 30.08 in 10.0 mi NE 5.8 mph - N/A   Scattered Clouds
7:45 PM 75.9 °F - 64.9 °F 69% 30.09 in 10.0 mi NE 4.6 mph - N/A   Mostly Cloudy
7:53 PM 75.0 °F - 64.0 °F 69% 30.09 in 10.0 mi NE 4.6 mph - N/A   Mostly Cloudy
8:53 PM 73.0 °F - 64.9 °F 76% 30.10 in 10.0 mi WSW 3.5 mph - N/A   Scattered Clouds
9:01 PM 73.0 °F - 64.9 °F 76% 30.10 in 10.0 mi SW 4.6 mph - N/A   Mostly Cloudy
9:53 PM 72.0 °F - 64.9 °F 78% 30.11 in 10.0 mi WSW 5.8 mph - N/A   Overcast
10:09 PM 71.1 °F - 64.0 °F 78% 30.11 in 10.0 mi WSW 6.9 mph - N/A   Scattered Clouds
10:53 PM 69.1 °F - 64.0 °F 84% 30.10 in 10.0 mi SW 5.8 mph - N/A   Scattered Clouds
11:53 PM 69.1 °F - 61.0 °F 75% 30.09 in 10.0 mi SW 6.9 mph - N/A   Overcast